sat.trackr.live / text

‹ back to catalog

STARLINK-32514

NORAD 61965 · 2024-210G

PAYLOAD ACTIVE UNKNOWN

§ Identity

Operator
Country
US
Launch date
2024-11-14
Launch site
AFETR
Launch vehicle
Mass (kg)
RCS (m²)

Purposes: comms

External: N2YO · Heavens-Above · Gunter

§ Orbital elements

Epoch: 2026-09-21T00:20:18.102624Z

Period
94.27 min
Inclination
43.0049°
Eccentricity
0.0001564
Mean motion
15.27587022 rev/d
Perigee alt
482.0 km
Apogee alt
484.1 km
Semi-major
6,861.2 km
B*
5.3826e-4
RAAN
149.6995°
Arg perigee
260.3671°
Mean anomaly
99.7004°
Rev number
10,486

§ Raw data

STARLINK-325141 61965U 24210G   26264.01409841  .00014582  00000+0  53826-3 0  99992 61965  43.0049 149.6995 0001564 260.3671  99.7004 15.27587022104860

JSON: /api/v1/satellites/61965 · /tle

For live sub-satellite position, see the globe view (requires WebGL).

§ Visibility from observer

Set your observer location to see the next 7 days of passes ≥ 10°. The values pass through the URL so the page stays shareable.

No JS? Fill the form by hand. The geolocation button needs JavaScript.